Погода в Корневом

Россия / Рязанская область     53°46′30″N   39°29′35″E
темп.,
°C
ветер,
м/с
пор.,
м/с
влажн.,
%
обл.,
%
осадки,
мм/ч
давл.,
гПа
погр.,
м
14 апреля, ср
ср1400:00+12юв514585 0.0 1023282
03:00+9юв36671 0.0 102396
06:00+8юв337169 0.0 102239
09:00+13юв4855100 0.0 1022320
12:00+18юв5735100 0.0 1020861
15:00+19юв68280 0.0 10191630
18:00+17юв483741 0.0 1018187
21:00+13юв3450100 0.0 101845
15 апреля, чт
чт1500:00+11юв3359100 0.0 101736
03:00+10юв2261100 0.0 101715
06:00+9вюв3465100 0.0 101754
09:00+13вюв3455100 0.0 1016251
12:00+15ююв3348100 0.0 1016772
15:00+18в334272 0.0 10141183
18:00+17в244912 0.0 101493
21:00+13ююв22645 0.0 101421
16 апреля, пт
пт1600:00+11с227497 0.1 101414
03:00+11всв2267100 0.1 101412
06:00+10всв3773100 0.0 1015135
09:00+14в356355 0.1 1016388
12:00+17в565240 0.0 10161071
15:00+18в684680 0.3 10161836
18:00+13з3477100 2.9 1016105
21:00+12ююз2487100 6.3 1018126
17 апреля, сб
сб1700:00+11ссв468870 0.1 1019112
03:00+10всв489194 0.4 1019212
06:00+9св599490 0.0 1020248
09:00+12всв71075100 0.0 1019543
12:00+16в8105756 0.0 10221196
15:00+18в9104952 0.1 10211699
18:00+15всв8125594 0.1 1022894
21:00+11всв71360100 0.1 1025523
18 апреля, вс
вс1800:00+9всв6126127 0.0 1026416
03:00+8всв61160100 0.0 1026400
06:00+7всв51160100 0.0 1028387
09:00+10в694918 0.0 1028589
12:00+13в67374 0.0 10291294
15:00+14всв78375 0.0 10291809
18:00+13всв57395 0.0 1029549
21:00+9всв411605 0.0 1030257